Location: Koslow
(50.3020°N, 18.5663°E)
Time: 00:10:14
(UTC+00:00)

Cosmos 2360 Rocket - Pass Details

Date: 07 June 2020
Orbit: 832 x 846 km, 71.0° (Epoch: 11 July)

Event Time Altitude Azimuth Distance (km) Brightness Sun altitude
Exits shadow 00:43:37 - 167° (SSE) 2,615 4.3 -12.3°
Reaches altitude 10° 00:44:09 10° 164° (SSE) 2,440 4.2 -12.3°
Maximum altitude 00:48:58 30° 105° (ESE) 1,453 3.6 -11.9°
Drops below altitude 10° 00:53:48 10° 46° (NE) 2,463 6.0 -11.5°
Sets 00:56:30 0° 36° (NE) 3,405 7.5 -11.3°
